"Pseudo-MPEC" for CEA33D2

Created 2026 Mar 10 1:35:17 UT using Find_Orb

Click here for an explanation of pseudo-MPECs

 
 Astrometry: 
     CEA33D2*1C2026 03 08.28395210 24 28.328+10 20 49.31   ~387Z 21.17GVNEOCPG96
     CEA33D2 1C2026 03 08.28948410 24 28.868+10 20 24.07   ~387Z 20.98GVNEOCPG96
     CEA33D2 1C2026 03 08.29501710 24 29.455+10 19 58.66   ~387Z 21.37GVNEOCPG96
     CEA33D2 1C2026 03 08.30054510 24 29.984+10 19 34.68   ~387Z 21.67GVNEOCPG96
     CEA33D2  C2026 03 08.32647710 24 32.216+10 17 31.16   ~388Z 21.9 GWNEOCPH01
     CEA33D2  C2026 03 08.33023610 24 32.621+10 17 13.74   ~388Z 21.1 GWNEOCPH01
     CEA33D2  C2026 03 08.33986510 24 33.667+10 16 29.29   ~388Z 21.1 GWNEOCPH01
     CEA33D2  C2026 03 08.34944710 24 34.736+10 15 44.66   ~388Z 21.1 GWNEOCPH01
     CEA33D2 1C2026 03 08.42164710 24 43.664+10 10 08.26   ~38Ao 21.05GVNEOCPI52
     CEA33D2 1C2026 03 08.42705910 24 44.417+10 09 43.02   ~38Ao 20.86GVNEOCPI52
     CEA33D2 |C2026 03 09.12913010 27 03.320+09 12 22.80   ~3945 21.0 GVNEOCP807
     CEA33D2 |C2026 03 09.13539010 27 04.150+09 11 47.60   ~3945 21.1 GVNEOCP807
     CEA33D2 |C2026 03 09.14164010 27 05.050+09 11 12.10   ~3945 20.9 GVNEOCP807
     CEA33D2 1C2026 03 09.24188010 27 26.410+08 58 23.27   ~396K 20.30GVNEOCPI52
     CEA33D2 1C2026 03 09.24548110 27 26.924+08 58 02.14   ~396K 20.75GVNEOCPI52
     CEA33D2 1C2026 03 09.24703710 27 27.155+08 57 52.45   ~396K 20.64GVNEOCPI52
     CEA33D2 1C2026 03 09.24860410 27 27.400+08 57 43.74   ~396K 21.24GVNEOCPI52

Station data:
(807) Cerro Tololo Observatory, La Serena  (S30.169133 W70.805900)  Chile.
   Observer R. Holmes. 0.61-m f/6.5 astrograph + CCD.
(G96) Mt. Lemmon Survey  (N32.442729 W110.788720)  US/Arizona.  Observer E.
   J. Christensen. Measurers T. Beuden, V. F. Carvajal, D. Fay, J. B.
   Fazekas, D. C. Fuls, A. R. Gibbs, A. D. Grauer, H. Gröller, J. K. Hogan,
   R. A. Kowalski, S. M. Larson, G. J. Leonard, D. Rankin, R. L. Seaman, F.
   C. Shelly, K. W. Wierzchoś. 1.5-m reflector + 10K CCD.
(H01) Magdalena Ridge Observatory, Socorro  (N33.984833 W107.189333)  US/New
   Mexico.  Observers W. H. Ryan, E. V. Ryan. Measurer W. H. Ryan. 2.4-m
   f/8.9 reflector + CCD.
(I52) Steward Observatory, Mt. Lemmon Station  (N32.442570 W110.788920)
   US/Arizona. Measurers T. Beuden, V. F. Carvajal, D. Fay, J. B. Fazekas, D.
   C. Fuls, A. R. Gibbs, A. D. Grauer, H. Gröller, J. K. Hogan, R. A.
   Kowalski, S. M. Larson, G. J. Leonard, D. Rankin, R. L. Seaman, F. C.
   Shelly, K. W. Wierzchoś. 1.0-m prime focus + CCD.

Orbital elements:  CEA33D2
   Perihelion 2026 Apr 15.007375 +/- 0.0127 TT =  0:10:37.1 (JD 2461145.507375)
Epoch 2026 Mar  9.0 TT = JDT 2461108.5   Earth MOID: 0.0071   Ma: 0.0030
M 350.229092490 +/- 0.13            (J2000 ecliptic)             AutoNEOCP
n   0.264025957 +/- 0.00367         Peri.  229.467779 +/- 0.08
a   2.406421126 +/- 0.0223          Node   347.072539 +/- 0.0014
e   0.62473973 +/- 0.00384          Incl.    2.680361 +/- 0.0046
P   3.73300                H 26.94  G  0.15   U  9.0
q 0.903034225 +/- 0.000868    Q 3.909808027 +/- 0.0455
From 17 observations 2026 Mar. 8-9 (23.2 hr); mean residual 0".26
Residuals in arcseconds: 
260308 G96  .26+  .07+    260308 H01  .14-  .02+    260309 807  .30+  .08+    
260308 G96  .12-  .20-    260308 H01  .03-  .09-    260309 I52  .10-  .06+    
260308 G96  .17+  .57-    260308 I52  .23-  .19-    260309 I52  .28-  .11+    
260308 G96  .41-  .54+    260308 I52  .62+  .53+    260309 I52  .23-  .42-    
260308 H01  .05-  .01+    260309 807  .38+  .11-    260309 I52  .02+  .11+    
260308 H01  .07-  .07-    260309 807  .20-  .11+    

Ephemerides (geocentric):
Date (UTC) HH   RA             Dec           delta  r     elong  mag " sig PA
---- --------  ------------   ------------  ------ ------ -----  --- --------
2026 03 10 02  10 30 45.451   +07 24 58.21  .04206 1.0341 167.3 20.9 6.53 149
2026 03 10 03  10 30 56.929   +07 19 34.33  .04176 1.0338 167.4 20.8 7.10 149
2026 03 10 04  10 31 08.569   +07 14 05.80  .04147 1.0336 167.4 20.8 7.71 149
2026 03 10 05  10 31 20.375   +07 08 32.52  .04117 1.0333 167.4 20.8 8.34 149
2026 03 10 06  10 31 32.350   +07 02 54.39  .04088 1.0330 167.5 20.8 9.01 149
2026 03 10 07  10 31 44.498   +06 57 11.31  .04058 1.0327 167.5 20.8 9.71 149
2026 03 10 08  10 31 56.823   +06 51 23.18  .04028 1.0325 167.5 20.8 10.5 150
2026 03 10 09  10 32 09.327   +06 45 29.89  .03999 1.0322 167.5 20.7 11.2 150
2026 03 10 10  10 32 22.016   +06 39 31.32  .03970 1.0319 167.6 20.7 12.0 150
2026 03 10 11  10 32 34.892   +06 33 27.36  .03940 1.0316 167.6 20.7 12.9 150
2026 03 10 12  10 32 47.961   +06 27 17.89  .03911 1.0314 167.6 20.7 13.8 150
2026 03 10 13  10 33 01.225   +06 21 02.80  .03881 1.0311 167.7 20.7 14.7 150
2026 03 10 14  10 33 14.690   +06 14 41.95  .03852 1.0308 167.7 20.7 15.7 150
2026 03 10 15  10 33 28.360   +06 08 15.22  .03822 1.0306 167.7 20.6 16.8 150
2026 03 10 16  10 33 42.239   +06 01 42.47  .03793 1.0303 167.8 20.6 17.8 150
2026 03 10 17  10 33 56.332   +05 55 03.58  .03764 1.0300 167.8 20.6 19.0 150
2026 03 10 18  10 34 10.644   +05 48 18.40  .03734 1.0297 167.8 20.6 20.1 150
2026 03 10 19  10 34 25.180   +05 41 26.78  .03705 1.0295 167.9 20.6 21.4 150
2026 03 10 20  10 34 39.944   +05 34 28.58  .03676 1.0292 167.9 20.5 22.7 150
2026 03 10 21  10 34 54.943   +05 27 23.65  .03647 1.0289 167.9 20.5 24.0 151
2026 03 10 22  10 35 10.182   +05 20 11.82  .03617 1.0287 168.0 20.5 25.4 151
2026 03 10 23  10 35 25.665   +05 12 52.95  .03588 1.0284 168.0 20.5 26.9 151
2026 03 11 00  10 35 41.400   +05 05 26.85  .03559 1.0281 168.0 20.5 28.4 151
2026 03 11 01  10 35 57.392   +04 57 53.35  .03530 1.0278 168.1 20.4 30.1 151
2026 03 11 02  10 36 13.647   +04 50 12.29  .03501 1.0276 168.1 20.4 31.7 151
2026 03 11 03  10 36 30.171   +04 42 23.47  .03472 1.0273 168.2 20.4 33.5 151
2026 03 11 04  10 36 46.971   +04 34 26.71  .03443 1.0270 168.2 20.4 35.3 151
2026 03 11 05  10 37 04.054   +04 26 21.82  .03414 1.0268 168.2 20.4 37.2 151
2026 03 11 06  10 37 21.427   +04 18 08.58  .03385 1.0265 168.3 20.3 39.2 151
2026 03 11 07  10 37 39.097   +04 09 46.80  .03356 1.0262 168.3 20.3 41.3 151
2026 03 11 08  10 37 57.072   +04 01 16.26  .03327 1.0260 168.3 20.3 43.5 151
2026 03 11 09  10 38 15.358   +03 52 36.74  .03298 1.0257 168.4 20.3 45.7 151
2026 03 11 10  10 38 33.965   +03 43 48.01  .03269 1.0254 168.4 20.3 48.1 151
2026 03 11 11  10 38 52.901   +03 34 49.83  .03240 1.0252 168.5 20.2 50.6 151
2026 03 11 12  10 39 12.173   +03 25 41.97  .03211 1.0249 168.5 20.2 53.1 151
2026 03 11 13  10 39 31.791   +03 16 24.17  .03182 1.0246 168.5 20.2 55.8 151
2026 03 11 14  10 39 51.764   +03 06 56.18  .03153 1.0244 168.6 20.2 58.6 151
2026 03 11 15  10 40 12.101   +02 57 17.71  .03125 1.0241 168.6 20.2 61.5 151
2026 03 11 16  10 40 32.813   +02 47 28.51  .03096 1.0238 168.6 20.1 64.5 151
2026 03 11 17  10 40 53.909   +02 37 28.27  .03067 1.0236 168.7 20.1 67.7 151
2026 03 11 18  10 41 15.400   +02 27 16.71  .03039 1.0233 168.7 20.1 71.0 151
2026 03 11 19  10 41 37.297   +02 16 53.51  .03010 1.0230 168.7 20.1 74.4 151
2026 03 11 20  10 41 59.610   +02 06 18.37  .02982 1.0228 168.8 20.0 78.0 151
2026 03 11 21  10 42 22.353   +01 55 30.95  .02953 1.0225 168.8 20.0 81.8 151
2026 03 11 22  10 42 45.537   +01 44 30.91  .02925 1.0222 168.8 20.0 85.7 151
2026 03 11 23  10 43 09.174   +01 33 17.90  .02896 1.0220 168.9 20.0 89.8 151
2026 03 12 00  10 43 33.278   +01 21 51.56  .02868 1.0217 168.9 20.0 94.0 151
2026 03 12 01  10 43 57.863   +01 10 11.51  .02839 1.0214 168.9 19.9 98.4 152